Overview Statistics Trail Chart Weather Telemetry Raw packets
 

This is the latest recevied weather packets stored in our database for station/object KK7MLS-13. If no packets are shown the sender has not sent any weather packets the latest 10 day(s).

<< 32 33 34 35 36 37 38 >>
Time Temp. Humidity Pressure Rain* Wind** Luminosity Snow
1788461140 15° C 88% 1010.8 hPa 0 mm - 585 W/m² -
1788460835 14.44° C 88% 1010.7 hPa 0 mm - 298 W/m² -
1788460534 13.89° C 89% 1010.9 hPa 0 mm - 248 W/m² -
1788460229 13.89° C 88% 1010.9 hPa 1.27 mm - 200 W/m² -
1788459927 14.44° C 87% 1010.5 hPa 1.27 mm - 118 W/m² -
1788459625 15° C 85% 1010.7 hPa 0 mm - 94 W/m² -
1788459318 15.56° C 83% 1010.6 hPa 0 mm - 108 W/m² -
1788459017 15.56° C 86% 1010.7 hPa 0 mm - 137 W/m² -
1788458713 15.56° C 87% 1010.6 hPa 0 mm - 141 W/m² -
1788458412 15.56° C 86% 1010.7 hPa 0 mm - 123 W/m² -
1788458111 15.56° C 85% 1010.6 hPa 0 mm - 118 W/m² -
1788457810 15.56° C 85% 1010.3 hPa 0 mm - 185 W/m² -
1788457506 16.11° C 85% 1010.5 hPa 0 mm - 112 W/m² -
1788457200 16.11° C 86% 1010.4 hPa 0 mm - 161 W/m² -
1788456895 16.11° C 86% 1010.2 hPa 0 mm - 214 W/m² -
1788456591 16.11° C 86% 1010.1 hPa 0 mm - 179 W/m² -
1788456286 16.67° C 85% 1010.3 hPa 0 mm - 184 W/m² -
1788455981 16.67° C 83% 1010.5 hPa 0 mm - 336 W/m² -
1788455676 16.67° C 87% 1010.4 hPa 0 mm - 404 W/m² -
1788455376 16.11° C 89% 1010.3 hPa 0 mm - 209 W/m² -
1788455071 15.56° C 91% 1010.5 hPa 0 mm - 450 W/m² -
1788454770 15° C 91% 1010.7 hPa 0 mm - 389 W/m² -
1788454464 14.44° C 92% 1010.6 hPa 0 mm - 478 W/m² -
1788454164 13.89° C 94% 1010.7 hPa 0 mm - 133 W/m² -
1788453860 13.33° C 95% 1010.6 hPa 0 mm - 445 W/m² -

* Rain latest hour (hover to see other rain measurements)
** Current wind speed in m/s (hover to see current wind gust speed)